Time,TemperatureF,DewpointF,PressureIn,WindDirection,WindDirectionDegrees,WindSpeedMPH,WindSpeedGustMPH,Humidity,HourlyPrecipIn,Conditions,Clouds,dailyrainin,SoftwareType,DateUTC
2013-02-17 00:01:00,43.0,9.0,-100.00,WSW,240,2.0,6.0,24,-99.99,,,-99.99,,2013-02-17 08:01:00,
2013-02-17 00:11:00,43.0,10.0,-100.00,West,268,3.0,15.0,25,-99.99,,,-99.99,,2013-02-17 08:11:00,
2013-02-17 00:21:00,42.0,11.0,-100.00,WNW,289,6.0,15.0,28,-99.99,,,-99.99,,2013-02-17 08:21:00,
2013-02-17 00:31:00,42.0,11.0,-100.00,WNW,288,6.0,15.0,28,-99.99,,,-99.99,,2013-02-17 08:31:00,
2013-02-17 01:32:00,39.0,11.0,-100.00,WSW,244,1.0,4.0,31,-99.99,,,-99.99,,2013-02-17 09:32:00,
2013-02-17 01:42:00,39.0,11.0,-100.00,WSW,244,1.0,4.0,31,-99.99,,,-99.99,,2013-02-17 09:42:00,
2013-02-17 01:52:00,39.0,11.0,-100.00,WSW,244,1.0,4.0,31,-99.99,,,-99.99,,2013-02-17 09:52:00,
2013-02-17 02:01:00,39.0,11.0,-100.00,WSW,244,1.0,4.0,31,-99.99,,,-99.99,,2013-02-17 10:01:00,
2013-02-17 04:42:00,40.0,6.0,-100.00,NNE,25,1.0,15.0,24,-99.99,,,-99.99,,2013-02-17 12:42:00,
2013-02-17 04:52:00,41.0,6.0,-100.00,NNE,23,3.0,14.0,23,-99.99,,,-99.99,,2013-02-17 12:52:00,
2013-02-17 05:02:00,42.0,7.0,-100.00,WNW,295,5.0,14.0,23,-99.99,,,-99.99,,2013-02-17 13:02:00,
2013-02-17 05:11:00,40.0,7.0,-100.00,SSE,164,2.0,13.0,25,-99.99,,,-99.99,,2013-02-17 13:11:00,
2013-02-17 05:21:00,41.0,9.0,-100.00,South,186,4.0,10.0,26,-99.99,,,-99.99,,2013-02-17 13:21:00,
2013-02-17 05:32:00,41.0,9.0,-100.00,South,186,4.0,10.0,26,-99.99,,,-99.99,,2013-02-17 13:32:00,
2013-02-17 05:41:00,37.0,8.0,-100.00,SSE,150,3.0,13.0,30,-99.99,,,-99.99,,2013-02-17 13:41:00,
2013-02-17 05:51:00,39.0,9.0,-100.00,SW,216,5.0,17.0,28,-99.99,,,-99.99,,2013-02-17 13:51:00,
2013-02-17 06:01:00,38.0,9.0,-100.00,SSW,198,3.0,14.0,29,-99.99,,,-99.99,,2013-02-17 14:01:00,
2013-02-17 06:11:00,39.0,9.0,-100.00,North,357,4.0,15.0,28,-99.99,,,-99.99,,2013-02-17 14:11:00,
2013-02-17 06:21:00,38.0,9.0,-100.00,NW,316,3.0,15.0,29,-99.99,,,-99.99,,2013-02-17 14:21:00,
2013-02-17 06:32:00,38.0,9.0,-100.00,NNW,343,2.0,13.0,29,-99.99,,,-99.99,,2013-02-17 14:32:00,
2013-02-17 06:42:00,37.0,9.0,-100.00,West,280,1.0,10.0,31,-99.99,,,-99.99,,2013-02-17 14:42:00,
2013-02-17 06:52:00,39.0,10.0,-100.00,NW,308,2.0,14.0,30,-99.99,,,-99.99,,2013-02-17 14:52:00,
2013-02-17 07:01:00,37.0,9.0,-100.00,WNW,301,1.0,10.0,31,-99.99,,,-99.99,,2013-02-17 15:01:00,
2013-02-17 07:11:00,36.0,10.0,-100.00,SW,226,2.0,13.0,33,-99.99,,,-99.99,,2013-02-17 15:11:00,
2013-02-17 07:21:00,36.0,10.0,-100.00,SSW,208,2.0,14.0,33,-99.99,,,-99.99,,2013-02-17 15:21:00,
2013-02-17 07:31:00,35.0,11.0,-100.00,West,272,1.0,14.0,36,-99.99,,,-99.99,,2013-02-17 15:31:00,
2013-02-17 07:41:00,37.0,8.0,-100.00,West,280,1.0,11.0,30,-99.99,,,-99.99,,2013-02-17 15:41:00,
2013-02-17 07:52:00,38.0,9.0,-100.00,South,178,2.0,12.0,29,-99.99,,,-99.99,,2013-02-17 15:52:00,
2013-02-17 08:01:00,38.0,9.0,-100.00,South,178,2.0,12.0,29,-99.99,,,-99.99,,2013-02-17 16:01:00,
2013-02-17 09:02:00,40.0,13.0,-100.00,ENE,65,1.0,10.0,32,-99.99,,,-99.99,,2013-02-17 17:02:00,
2013-02-17 09:11:00,39.0,12.0,-100.00,North,10,3.0,17.0,33,-99.99,,,-99.99,,2013-02-17 17:11:00,
2013-02-17 09:21:00,39.0,15.0,-100.00,NNE,24,3.0,14.0,37,-99.99,,,-99.99,,2013-02-17 17:21:00,
2013-02-17 09:31:00,39.0,10.0,-100.00,NE,37,2.0,11.0,30,-99.99,,,-99.99,,2013-02-17 17:31:00,
2013-02-17 09:41:00,40.0,10.0,-100.00,North,8,2.0,8.0,28,-99.99,,,-99.99,,2013-02-17 17:41:00,
2013-02-17 09:50:00,43.0,15.0,-100.00,SE,134,3.0,12.0,32,-99.99,,,-99.99,,2013-02-17 17:50:00,
2013-02-17 09:52:00,44.0,10.0,-100.00,ESE,123,1.0,5.0,24,-99.99,,,-99.99,,2013-02-17 17:52:00,
2013-02-17 10:01:00,43.0,14.0,-100.00,ESE,121,2.0,12.0,30,-99.99,,,-99.99,,2013-02-17 18:01:00,
2013-02-17 10:11:00,43.0,16.0,-100.00,SE,128,2.0,12.0,33,-99.99,,,-99.99,,2013-02-17 18:11:00,
2013-02-17 10:21:00,43.0,15.0,-100.00,SE,134,3.0,12.0,32,-99.99,,,-99.99,,2013-02-17 18:21:00,
2013-02-17 10:33:00,43.0,15.0,-100.00,SE,134,3.0,12.0,32,-99.99,,,-99.99,,2013-02-17 18:33:00,
2013-02-17 10:42:00,43.0,15.0,-100.00,SE,134,3.0,12.0,32,-99.99,,,-99.99,,2013-02-17 18:42:00,
2013-02-17 11:21:00,45.0,16.0,-100.00,ESE,119,3.0,8.0,31,-99.99,,,-99.99,,2013-02-17 19:21:00,
2013-02-17 11:32:00,45.0,16.0,-100.00,ESE,119,3.0,8.0,31,-99.99,,,-99.99,,2013-02-17 19:32:00,
2013-02-17 11:41:00,45.0,16.0,-100.00,ESE,119,3.0,8.0,31,-99.99,,,-99.99,,2013-02-17 19:41:00,
2013-02-17 12:21:00,50.0,18.0,-100.00,NE,54,4.0,15.0,28,-99.99,,,-99.99,,2013-02-17 20:21:00,
2013-02-17 12:32:00,50.0,18.0,-100.00,East,92,4.0,15.0,28,-99.99,,,-99.99,,2013-02-17 20:32:00,
2013-02-17 12:42:00,49.0,16.0,-100.00,East,92,4.0,15.0,27,-99.99,,,-99.99,,2013-02-17 20:42:00,
2013-02-17 12:52:00,49.0,16.0,-100.00,East,92,4.0,15.0,27,-99.99,,,-99.99,,2013-02-17 20:52:00,
2013-02-17 13:01:00,49.0,16.0,-100.00,East,92,4.0,15.0,27,-99.99,,,-99.99,,2013-02-17 21:01:00,
2013-02-17 14:52:00,53.0,19.0,-100.00,ENE,58,2.0,5.0,26,-99.99,,,-99.99,,2013-02-17 22:52:00,
2013-02-17 15:21:00,53.0,19.0,-100.00,ENE,58,2.0,5.0,26,-99.99,,,-99.99,,2013-02-17 23:21:00,
2013-02-17 15:31:00,53.0,19.0,-100.00,ENE,58,2.0,5.0,26,-99.99,,,-99.99,,2013-02-17 23:31:00,
2013-02-17 15:42:00,53.0,19.0,-100.00,ENE,58,2.0,5.0,26,-99.99,,,-99.99,,2013-02-17 23:42:00,
2013-02-17 16:22:00,48.0,20.0,-100.00,ESE,107,1.0,11.0,33,-99.99,,,-99.99,,2013-02-18 00:22:00,
2013-02-17 16:31:00,48.0,20.0,-100.00,ESE,107,1.0,11.0,33,-99.99,,,-99.99,,2013-02-18 00:31:00,
2013-02-17 16:41:00,48.0,21.0,-100.00,NNE,14,4.0,13.0,34,-99.99,,,-99.99,,2013-02-18 00:41:00,
2013-02-17 16:52:00,47.0,21.0,-100.00,North,0,3.0,14.0,35,-99.99,,,-99.99,,2013-02-18 00:52:00,
2013-02-17 17:01:00,47.0,21.0,-100.00,North,0,3.0,14.0,35,-99.99,,,-99.99,,2013-02-18 01:01:00,
2013-02-17 19:32:00,40.0,21.0,-100.00,North,8,5.0,10.0,47,-99.99,,,-99.99,,2013-02-18 03:32:00,
2013-02-17 19:42:00,39.0,21.0,-100.00,North,7,5.0,17.0,48,-99.99,,,-99.99,,2013-02-18 03:42:00,
2013-02-17 19:52:00,39.0,21.0,-100.00,North,7,5.0,17.0,48,-99.99,,,-99.99,,2013-02-18 03:52:00,
2013-02-17 20:01:00,39.0,21.0,-100.00,North,7,5.0,17.0,48,-99.99,,,-99.99,,2013-02-18 04:01:00,
2013-02-17 20:32:00,38.0,21.0,-100.00,NNE,27,1.0,11.0,49,-99.99,,,-99.99,,2013-02-18 04:32:00,
2013-02-17 20:42:00,38.0,21.0,-100.00,NNE,27,1.0,11.0,49,-99.99,,,-99.99,,2013-02-18 04:42:00,
2013-02-17 20:52:00,38.0,21.0,-100.00,NNE,27,1.0,11.0,49,-99.99,,,-99.99,,2013-02-18 04:52:00,
2013-02-17 21:01:00,38.0,21.0,-100.00,NNE,27,1.0,11.0,49,-99.99,,,-99.99,,2013-02-18 05:01:00,
2013-02-17 22:51:00,35.0,11.0,-100.00,West,278,1.0,13.0,37,-99.99,,,-99.99,,2013-02-18 06:51:00,
2013-02-17 23:21:00,35.0,11.0,-100.00,West,278,1.0,13.0,37,-99.99,,,-99.99,,2013-02-18 07:21:00,
2013-02-17 23:32:00,35.0,11.0,-100.00,West,278,1.0,13.0,37,-99.99,,,-99.99,,2013-02-18 07:32:00,
2013-02-17 23:42:00,35.0,11.0,-100.00,West,278,1.0,13.0,37,-99.99,,,-99.99,,2013-02-18 07:42:00,